| time (UTC) | temp C | wind direction | speed KPH | gust KPH | rain 1hr cm | rain 24hr cm | rain mn cm | humidity % | barometer mb |
| 20260505124123 | 15 | 337 | 9.7 | 16.1 | 0.00 | 0.00 | 0.00 | ||
| 20260505123625 | 15 | 90 | 9.7 | 14.5 | 0.00 | 0.00 | 0.00 | ||
| 20260505122909 | 15 | 337 | 11.3 | 14.5 | 0.00 | 0.00 | 0.00 | ||
| 20260505121642 | 15 | 337 | 9.7 | 12.9 | 0.00 | 0.00 | 0.00 | ||
| 20260505121404 | 15 | 337 | 8.0 | 14.5 | 0.00 | 0.00 | 0.00 | ||
| 20260505121029 | 15 | 337 | 8.0 | 14.5 | 0.00 | 0.00 | 0.00 | ||
| 20260505120149 | 15 | 337 | 8.0 | 9.7 | 0.00 | 0.00 | 0.00 | ||
| 20260505115536 | 15 | 337 | 0.0 | 0.0 | 0.00 | 0.00 | 0.00 | ||
| 20260505114310 | 15 | 337 | 0.0 | 9.7 | 0.00 | 0.00 | 0.00 | ||
| 20260505113043 | 15 | 337 | 0.0 | 9.7 | 0.00 | 0.00 | 0.00 | ||
| 20260505111817 | 15 | 337 | 0.0 | 0.0 | 0.00 | 0.00 | 0.00 | ||
| 20260505110551 | 15 | 337 | 0.0 | 0.0 | 0.00 | 0.00 | 0.00 | ||
| 20260504173510 | 34 | 262 | 4.8 | 14.5 | 0.00 | 0.00 | 0.00 | ||
| 20260504173009 | 34 | 258 | 8.0 | 16.1 | 0.00 | 0.00 | 0.00 | ||
| 20260504172857 | 34 | 258 | 8.0 | 16.1 | 0.00 | 0.00 | 0.00 | ||
| 20260504172351 | 34 | 334 | 8.0 | 25.7 | 0.00 | 0.00 | 0.00 | ||
| 20260504172140 | 34 | 334 | 8.0 | 25.7 | 0.00 | 0.00 | 0.00 | ||
| 20260504171343 | 34 | 345 | 8.0 | 11.3 | 0.00 | 0.00 | 0.00 | ||
| 20260504170729 | 34 | 322 | 4.8 | 22.5 | 0.00 | 0.00 | 0.00 | ||
| 20260504170116 | 32 | 301 | 12.9 | 30.6 | 0.00 | 0.00 | 0.00 | ||
| 20260504160340 | 30 | 280 | 4.8 | 17.7 | 0.00 | 0.00 | 0.00 | ||
| 20260504150446 | 24 | 271 | 8.0 | 11.3 | 0.00 | 0.00 | 0.00 | ||
| 20260504140848 | 20 | 270 | 9.7 | 14.5 | 0.00 | 0.00 | 0.00 |